Location: Cudham
(51.3000°N, 0.0667°E)
Time: 16:11:22
(UTC+00:00)

USA 229 DEB - Pass Details

Date: 23 April 2026
Orbit: 844 x 1364 km, 63.4° (Epoch: 10 January)

Event Time Altitude Azimuth Distance (km) Brightness Sun altitude
Rises 20:30:15 0° 299° (WNW) 3,758 8.5 -11.8°
Reaches altitude 10° 20:33:02 10° 309° (NW) 2,884 7.5 -12.1°
Maximum altitude 20:39:14 34° 13° (NNE) 1,819 5.2 -12.8°
Drops below altitude 10° 20:46:07 10° 76° (ENE) 3,223 5.9 -13.6°
Enters shadow 20:48:54 - 84° (E) 4,092 6.4 -14.0°
